Tracking 19193 objects as of 23-Jun-2018
HD Live streaming from Space Station
objects crossing your sky now

FENGYUN 1C DEB

Track FENGYUN 1C DEB now!
10-day predictions


NORAD ID: 33621
Int'l Code: 1999-025DDE
Perigee: 637.5 km
Apogee: 1,083.0 km
Inclination: 98.2 °
Period: 102.0 minutes
Semi major axis: 7231 km
RCS: 0.015 m2 (small)
Launch date: May 10, 1999
Source: People's Republic of China (PRC)
Launch site: Taiyaun Space Center, China (TSC)

Note: This is SATELLITE DEBRIS
aabbcc
Your satellite tracking list
Your tracking list is empty




NASA's NSSDC Master Catalog

Two Line Element Set (TLE):
1 33621U 99025DDE 18173.31458773 +.00000203 +00000-0 +87562-4 0  9995
2 33621 098.1591 210.2129 0308052 291.3646 065.4915 14.11837813256602
Source of the keplerian elements: AFSPC